Location: La Pernelle
(49.6188°N, 1.2999°W)
Time: 18:24:36
(UTC+00:00)

SL-16 R/B - Pass Details

Date: 25 October 2021
Orbit: 842 x 846 km, 71.0° (Epoch: 28 November)

Event Time Altitude Azimuth Distance (km) Brightness Sun altitude
Exits shadow 04:37:21 13° 202° (SSW) 2,248 4.1 -20.9°
Drops below altitude 10° 04:38:02 10° 197° (SSW) 2,462 4.4 -20.8°
Sets 04:40:45 0° 187° (S) 3,393 5.2 -20.3°
